FREGAT DEB, 45837

Orbit data source: Space-Track

FREGAT DEB, 45837 is space debris in LEO originally from a launch on Mon, 18 Jul 2011 UTC launched from the Tyuratam Missile And Space Complex (TTMTR). Debris objects in space refer to the collection of defunct objects orbiting the Earth. Examples of debris include non-operational satellites, rocket bodies, and fragments generated from explosions, collisions, or faulty payload assembly.

Loading next visibility...
Identifier
45837, 2011-037BX
Orbit
LEO
Country
Flag of CISCIS
Related business
Manufacturer
Lavochkin
Mission
Spacecraft
Bus & Motor
Unknown
Mass
Unknown
Launch date (UTC)
2011-07-18 (15 years ago)
Launch vehicle
Unknown
Launch site
Tyuratam Missile And Space Complex (TTMTR)
Object type
Payload
Rocket body
Debris
Shape & HBR
Unknown shape, 0.2 m
Radar Cross Section
Medium (>0.1 m² and <1 m²)

Expand to show TLE details & history
Last TLE update: 2 days ago

TLE from 2 days ago
0 FREGAT DEB
1 45837U 11037BX  26171.40744853 -.00019907  00000-0 -56923-1 0  9995
2 45837  51.4629 228.5592 1548521  67.5397 308.1779 11.05270451234361
Epoch: 2026-06-20T09:46Z
TLE epoch observation values (Epoch: 2026-06-20T09:46:43.552Z)
Latitude
-0.00004°
Longitude
173.25519°
Altitude
1,465.741 km
Speed
7.406 km/s
True Right ascension
15h 14m 14s
True Declination
0° 00' 00"
Sunlit
Object was in full shadow at epoch
Visualization orbit readout
Latitude
Unknown
Longitude
Unknown
Altitude
Unknown
Speed
Unknown
Apparent Right ascension
Unknown
Apparent Declination
Unknown
Sunlit
N/A
Visualization observer readout
Local Sidereal Time
21:37:10
Azimuth
Unknown
Elevation
Unknown
Doppler factor
Unknown
Orbital elements
Apogee altitude
3,453.789 km
Perigee altitude
817.098 km
Semi-major axis
8,513.58 km
Eccentricity
0.15485
Inclination
51.4629°
RAAN
228.5592°
Arg. of periapsis
67.5397°
True anomaly
292.54398°
Mean anomaly
308.1779°
Eccentric anomaly
300.53604°
Mean motion
2.76296 °/min
Orbital period
130.29 mins
BSTAR
-0.056923
Loading maneuver chart data...
Computing Atmospheric mass density...
Loading historical data...
Loading historical data...
Loading historical data...
Loading historical data...
Loading historical data...
Loading historical data...
Loading historical data...

Documentation

Showing up to 5 results
|